Weather reports worldwide

Advertisment
Alajar, Spain (8380): temperature & dewpoint: 10.09.2019 05:00:00 - 16.09.2019 05:00:00 (CEST)Alajar, Spain (8380): wind speed & gusts: 10.09.2019 05:00:00 - 16.09.2019 05:00:00 (CEST)Alajar, Spain (8380): wind direction: 10.09.2019 05:00:00 - 16.09.2019 05:00:00 (CEST)Alajar, Spain (8380): reduced air pressure: 10.09.2019 05:00:00 - 16.09.2019 05:00:00 (CEST)Alajar, Spain (8380): visibility: 10.09.2019 05:00:00 - 16.09.2019 05:00:00 (CEST)Alajar, Spain (8380): sunshine duration: 10.09.2019 05:00:00 - 16.09.2019 05:00:00 (CEST)Alajar, Spain (8380): precipitation: 10.09.2019 05:00:00 - 16.09.2019 05:00:00 (CEST)
Date & Time tt [°C] td [°C] ff [km/h] ff [kn] fx [km/h] fx [kn] dd ppp [hPa] vv [km] sd [min] rr [mm]
16.09.2019 05:00:00 - - - - - - - - - - -
16.09.2019 04:00:00 19,8 13,1 5 3 12 6 N 1017,4 20 0 0,0
16.09.2019 03:00:00 19,8 13,3 4 2 22 12 N 1017,7 20 0 0,0
16.09.2019 02:00:00 18,6 13,7 6 4 15 8 NNW 1018,3 20 0 -
16.09.2019 01:00:00 19,0 13,7 5 3 9 5 WNW 1018,2 20 0 0,0
16.09.2019 00:00:00 19,0 14,9 4 2 7 4 WNW 1018,4 20 0 0,0
15.09.2019 23:00:00 19,6 15,6 5 3 8 4 NW 1018,3 20 0 0,0
15.09.2019 22:00:00 20,2 16,2 4 2 18 10 N 1017,8 20 0 0,0
15.09.2019 21:00:00 22,0 16,0 11 6 19 11 SW 1016,8 20 0 0,0
15.09.2019 20:00:00 23,9 16,4 13 7 25 14 SW 1015,8 20 0 -
15.09.2019 19:00:00 25,2 14,6 10 5 16 9 SW 1015,4 20 1 0,0
15.09.2019 18:00:00 25,6 12,1 2 1 19 10 NW 1015,3 20 11 0,0
15.09.2019 17:00:00 25,6 12,1 9 5 21 11 N 1015,3 20 27 0,0
15.09.2019 16:00:00 25,8 12,6 7 4 20 11 NNW 1015,7 20 36 0,0
15.09.2019 15:00:00 26,0 12,1 6 3 18 10 S 1016,1 20 16 0,0
15.09.2019 14:00:00 24,6 12,8 8 4 18 10 N 1016,8 20 26 -
15.09.2019 13:00:00 26,5 14,6 8 5 19 11 SSW 1016,9 20 60 0,0
15.09.2019 12:00:00 24,0 13,9 6 4 17 9 WSW 1017,6 20 60 0,0
15.09.2019 11:00:00 22,0 15,3 9 5 13 7 SSW 1017,7 20 60 0,0
15.09.2019 10:00:00 20,2 15,8 1 1 4 2 SSW 1017,5 20 41 0,0
15.09.2019 09:00:00 15,8 13,5 4 2 9 5 NNE 1018,3 20 0 0,0
15.09.2019 08:00:00 15,7 13,2 5 3 7 4 N 1018,3 20 0 -
15.09.2019 07:00:00 15,7 13,4 2 1 8 4 NE 1018,3 20 0 0,0
15.09.2019 06:00:00 15,8 13,1 4 2 8 5 NNE 1018,1 20 0 0,0
15.09.2019 05:00:00 15,7 14,4 3 1 8 4 ESE 1018,1 20 0 0,0
15.09.2019 04:00:00 15,3 14,8 3 2 7 4 NNE 1018,6 20 0 0,0
15.09.2019 03:00:00 15,6 14,8 1 1 9 5 NE 1018,8 20 0 0,0
15.09.2019 02:00:00 15,9 15,1 5 3 10 6 NE 1019,1 20 0 -
15.09.2019 01:00:00 15,8 14,5 6 3 13 7 NE 1019,3 20 0 0,0
15.09.2019 00:00:00 16,0 14,9 3 1 9 5 SW 1019,4 20 0 0,0
14.09.2019 23:00:00 16,5 15,0 4 2 13 7 N 1019,2 20 0 0,0
14.09.2019 22:00:00 17,1 14,9 7 4 10 5 NE 1018,5 20 0 0,0
14.09.2019 21:00:00 17,3 17,3 6 3 11 6 NNE 1017,9 20 0 0,0
14.09.2019 20:00:00 - - - - - - - - - - -
14.09.2019 19:00:00 17,1 17,1 10 5 23 12 NE 1017,6 20 0 4,6
14.09.2019 18:00:00 16,3 16,3 8 5 41 22 NE 1018,2 1,1 0 19,4
14.09.2019 17:00:00 20,1 14,4 21 11 32 17 NNE 1016,6 20 2 0,0
14.09.2019 16:00:00 23,3 12,8 14 8 26 14 NE 1015,9 20 10 0,0
14.09.2019 15:00:00 25,6 13,8 8 5 26 14 SE 1015,7 20 42 0,0
14.09.2019 14:00:00 25,6 14,4 8 5 22 12 SSE 1016,4 20 59 -
14.09.2019 13:00:00 24,6 14,7 10 5 24 13 SSE 1017,3 20 48 0,0
14.09.2019 12:00:00 20,2 14,1 12 6 24 13 E 1018,8 20 14 0,0
14.09.2019 11:00:00 20,0 14,1 7 4 26 14 E 1018,7 20 33 0,0
14.09.2019 10:00:00 20,0 13,7 8 4 26 14 SE 1018,4 20 7 0,0
14.09.2019 09:00:00 18,3 13,2 5 3 10 6 ENE 1018,4 20 0 0,0
14.09.2019 08:00:00 17,5 13,3 5 3 8 4 ENE 1018,2 20 0 -
14.09.2019 07:00:00 16,8 11,1 2 1 13 7 N 1018,2 20 0 0,0
14.09.2019 06:00:00 16,9 10,0 7 4 12 6 ENE 1018,2 20 0 0,0
14.09.2019 05:00:00 16,1 9,9 6 3 10 5 ENE 1018,7 20 0 0,0
14.09.2019 04:00:00 16,6 10,0 2 1 8 5 NNE 1018,9 20 0 0,0
14.09.2019 03:00:00 16,6 11,9 5 3 9 5 E 1019,5 20 0 0,0
14.09.2019 02:00:00 16,5 11,2 5 3 15 8 NNW 1019,9 20 0 -
14.09.2019 01:00:00 16,2 12,5 6 3 11 6 ENE 1020,3 20 0 0,0
14.09.2019 00:00:00 15,7 13,8 6 3 11 6 N 1020,2 20 0 0,0
13.09.2019 23:00:00 - - - - - - - - - - -
13.09.2019 22:00:00 15,2 14,4 11 6 19 10 NE 1020,5 20 0 1,4
13.09.2019 21:00:00 16,6 12,7 16 9 36 20 E 1020,8 10 0 0,4
13.09.2019 20:00:00 23,4 9,0 5 3 19 10 ENE 1017,4 20 27 -
13.09.2019 19:00:00 24,3 9,0 10 6 27 15 E 1017,3 20 60 0,0
13.09.2019 18:00:00 23,8 10,2 10 5 24 13 E 1016,9 20 46 0,0
13.09.2019 17:00:00 22,8 11,6 11 6 29 15 SE 1017,2 20 0 0,0
13.09.2019 16:00:00 23,0 11,4 13 7 29 15 ENE 1017,1 20 0 0,0
13.09.2019 15:00:00 25,0 10,4 16 9 - - E 1017,3 20 55 0,0
13.09.2019 14:00:00 25,3 10,8 16 9 38 20 ESE 1017,6 20 58 -
13.09.2019 13:00:00 22,9 9,7 16 9 35 19 E 1018,6 20 16 0,0
13.09.2019 12:00:00 22,7 9,4 14 8 39 21 E 1018,7 20 44 0,0
13.09.2019 11:00:00 21,4 9,6 16 9 43 23 E 1018,6 20 60 0,0
13.09.2019 10:00:00 20,4 9,9 16 9 35 19 ENE 1018,5 20 41 0,0
13.09.2019 09:00:00 18,9 10,4 16 9 38 21 ENE 1019,3 20 0 0,0
13.09.2019 08:00:00 18,4 11,0 16 9 36 20 NE 1019,1 20 0 -
13.09.2019 07:00:00 17,9 10,8 16 9 47 25 NE 1019,5 20 0 0,0
13.09.2019 06:00:00 19,3 10,3 23 13 40 22 NE 1018,4 20 0 0,0
13.09.2019 05:00:00 18,7 10,5 14 7 36 19 ENE 1019,5 20 0 0,0
13.09.2019 04:00:00 19,3 10,3 17 9 35 19 E 1020,2 20 0 0,0
13.09.2019 03:00:00 19,8 10,2 14 8 39 21 E 1020,4 20 0 0,0
13.09.2019 02:00:00 20,1 11,3 11 6 32 17 E 1020,2 20 0 -
13.09.2019 01:00:00 20,8 12,0 16 9 40 22 E 1020,9 20 0 0,0
13.09.2019 00:00:00 21,2 11,8 17 9 36 20 E 1021,0 20 0 0,0
12.09.2019 23:00:00 21,3 10,4 14 7 27 15 ENE 1021,3 20 0 0,0
12.09.2019 22:00:00 22,0 10,2 13 7 29 16 ENE 1021,0 20 0 0,0
12.09.2019 21:00:00 22,8 9,9 10 5 27 15 E 1020,2 20 1 0,0
12.09.2019 20:00:00 24,6 8,9 15 8 35 19 E 1019,7 20 12 -
12.09.2019 19:00:00 26,1 9,0 18 10 38 21 E 1019,1 20 19 0,0
12.09.2019 18:00:00 27,4 8,8 13 7 46 25 ESE 1018,4 20 48 0,0
12.09.2019 17:00:00 27,6 8,0 17 9 - - ESE 1018,1 20 44 0,0
12.09.2019 16:00:00 29,7 7,6 12 6 - - SE 1017,8 20 57 0,0
12.09.2019 15:00:00 27,3 8,7 15 8 39 21 E 1018,9 20 48 0,0
12.09.2019 14:00:00 27,4 8,8 16 9 38 21 E 1019,2 20 59 -
12.09.2019 13:00:00 25,5 8,9 19 10 47 25 ESE 1020,0 20 59 0,0
12.09.2019 12:00:00 24,4 8,8 16 9 39 21 ESE 1020,3 20 60 0,0
12.09.2019 11:00:00 22,3 9,4 19 10 51 28 E 1020,6 20 60 0,0
12.09.2019 10:00:00 19,8 8,5 27 15 47 26 NE 1020,7 20 38 0,0
12.09.2019 09:00:00 18,0 8,5 18 10 38 21 NE 1020,9 20 0 0,0
12.09.2019 08:00:00 17,6 7,3 13 7 40 22 ENE 1021,1 20 0 -
12.09.2019 07:00:00 17,3 4,6 13 7 32 17 ENE 1021,0 20 0 0,0
12.09.2019 06:00:00 17,6 3,4 11 6 33 18 ENE 1020,7 20 0 0,0
12.09.2019 05:00:00 18,7 2,5 20 11 43 23 ENE 1020,5 20 0 0,0
12.09.2019 04:00:00 19,5 5,5 16 9 33 18 E 1020,4 20 0 0,0
12.09.2019 03:00:00 20,1 7,1 16 8 31 17 E 1020,2 20 0 0,0
12.09.2019 02:00:00 20,7 7,0 11 6 36 19 E 1020,4 20 0 -
12.09.2019 01:00:00 21,0 6,5 7 4 28 15 E 1019,9 20 0 0,0
12.09.2019 00:00:00 21,9 5,8 11 6 26 14 E 1019,6 20 0 0,0
11.09.2019 23:00:00 22,3 5,6 12 7 21 11 NNE 1019,2 20 0 0,0
11.09.2019 22:00:00 21,2 5,5 11 6 17 9 NNE 1018,8 20 0 0,0
11.09.2019 21:00:00 22,6 5,5 10 6 23 13 NNE 1017,9 20 4 0,0
11.09.2019 20:00:00 25,0 5,1 9 5 28 15 ENE 1017,0 20 33 -
11.09.2019 19:00:00 26,0 5,0 12 7 34 19 NE 1016,5 20 60 0,0
11.09.2019 18:00:00 26,5 4,8 14 8 38 20 E 1016,4 20 60 0,0
11.09.2019 17:00:00 26,7 5,0 12 6 39 21 E 1016,3 20 60 0,0
11.09.2019 16:00:00 26,5 4,8 10 5 32 17 E 1016,8 20 60 0,0
11.09.2019 15:00:00 25,1 4,8 14 8 34 18 ENE 1017,7 20 60 0,0
11.09.2019 14:00:00 24,5 4,3 15 8 - - E 1018,1 20 60 -
11.09.2019 13:00:00 22,6 4,1 16 8 38 20 ENE 1018,7 20 60 0,0
11.09.2019 12:00:00 21,5 4,5 14 8 43 23 ENE 1019,2 20 60 0,0
11.09.2019 11:00:00 20,1 4,5 11 6 36 19 E 1019,4 20 60 0,0
11.09.2019 10:00:00 17,9 4,1 7 4 15 8 E 1019,7 20 42 0,0
11.09.2019 09:00:00 14,2 4,1 7 4 16 9 N 1020,3 20 0 0,0
11.09.2019 08:00:00 13,5 3,8 11 6 23 12 NNE 1019,7 20 0 -
11.09.2019 07:00:00 14,3 3,4 16 9 28 15 NNE 1019,0 20 0 0,0
11.09.2019 06:00:00 14,4 3,6 18 10 30 16 NNE 1018,7 20 0 0,0
11.09.2019 05:00:00 15,4 2,9 18 10 29 16 NNE 1018,5 20 0 0,0
11.09.2019 04:00:00 16,0 2,7 12 7 29 16 NNE 1018,6 20 0 0,0
11.09.2019 03:00:00 16,1 2,9 15 8 26 14 NNE 1018,5 20 0 0,0
11.09.2019 02:00:00 16,0 2,7 15 8 22 12 N 1018,7 20 0 -
11.09.2019 01:00:00 18,6 0,6 8 4 22 12 NNW 1018,2 20 0 0,0
11.09.2019 00:00:00 19,0 0,0 5 3 22 12 NNE 1017,9 20 0 0,0
10.09.2019 23:00:00 19,7 -1,0 10 5 25 14 N 1017,5 20 0 0,0
10.09.2019 22:00:00 20,1 -1,7 13 7 25 13 N 1016,6 20 0 0,0
10.09.2019 21:00:00 20,5 -1,4 8 5 31 17 N 1015,9 20 4 0,0
10.09.2019 20:00:00 22,3 -1,7 13 7 34 18 N 1014,8 20 31 -
10.09.2019 19:00:00 23,1 -1,2 19 10 37 20 N 1014,2 20 60 0,0
10.09.2019 18:00:00 23,5 0,0 15 8 39 21 NNE 1014,3 20 60 0,0
10.09.2019 17:00:00 23,5 0,0 19 10 - - N 1014,3 20 60 0,0
10.09.2019 16:00:00 23,6 0,6 15 8 40 21 N 1014,5 20 60 0,0
10.09.2019 15:00:00 21,6 6,7 15 8 49 27 N 1015,3 20 60 0,0
10.09.2019 14:00:00 20,6 8,5 15 8 - - N 1015,8 20 60 -
10.09.2019 13:00:00 18,8 9,8 19 10 44 24 NNE 1016,6 20 60 0,0
10.09.2019 12:00:00 16,8 10,4 24 13 54 29 N 1017,0 20 60 0,0
10.09.2019 11:00:00 - - - - - - - - - - -
10.09.2019 10:00:00 - - - - - - - - - - -
10.09.2019 09:00:00 - - - - - - - - - - -
10.09.2019 08:00:00 - - - - - - - - - - -
10.09.2019 07:00:00 - - - - - - - - - - -
10.09.2019 06:00:00 - - - - - - - - - - -
10.09.2019 05:00:00 - - - - - - - - - - -

tt = temperature
td = dewpoint
ff = wind speed
fx = gusts
dd = wind direction
ppp = reduced air pressure
vv = visibility
sd = sunshine duration
rr = precipitation

Next stations